TimeMDT,TemperatureF,Dew PointF,Humidity,Sea Level PressureIn,VisibilityMPH,Wind Direction,Wind SpeedMPH,Gust SpeedMPH,PrecipitationIn,Events,Conditions,WindDirDegrees,DateUTC
12:53 AM,80.1,59.0,48,29.78,10.0,South,10.4,-,N/A,,Clear,180,2013-07-23 06:53:00
1:53 AM,78.1,59.0,52,29.79,10.0,SSW,8.1,-,N/A,,Clear,200,2013-07-23 07:53:00
2:53 AM,77.0,60.1,56,29.78,10.0,SSW,8.1,-,N/A,,Clear,210,2013-07-23 08:53:00
3:53 AM,75.9,60.1,58,29.79,10.0,WSW,6.9,-,N/A,,Clear,250,2013-07-23 09:53:00
4:53 AM,75.0,60.1,60,29.80,10.0,SW,4.6,-,N/A,,Clear,220,2013-07-23 10:53:00
5:53 AM,73.0,61.0,66,29.81,10.0,WSW,5.8,-,N/A,,Clear,240,2013-07-23 11:53:00
6:53 AM,75.0,62.1,64,29.81,10.0,SW,4.6,-,N/A,,Clear,230,2013-07-23 12:53:00
7:53 AM,79.0,63.0,58,29.81,10.0,SW,12.7,-,N/A,,Clear,220,2013-07-23 13:53:00
8:53 AM,82.9,63.0,51,29.82,10.0,WSW,9.2,-,N/A,,Clear,240,2013-07-23 14:53:00
9:53 AM,86.0,63.0,46,29.81,10.0,West,5.8,-,N/A,,Clear,260,2013-07-23 15:53:00
10:53 AM,89.1,61.0,39,29.81,10.0,WSW,3.5,-,N/A,,Clear,240,2013-07-23 16:53:00
11:53 AM,93.0,57.9,31,29.79,10.0,Variable,3.5,-,N/A,,Clear,0,2013-07-23 17:53:00
12:53 PM,95.0,54.0,25,29.77,10.0,SW,9.2,-,N/A,,Clear,230,2013-07-23 18:53:00
1:53 PM,97.0,50.0,20,29.75,10.0,WSW,11.5,21.9,N/A,,Clear,240,2013-07-23 19:53:00
2:53 PM,98.1,46.9,18,29.74,10.0,Variable,3.5,18.4,N/A,,Clear,0,2013-07-23 20:53:00
3:53 PM,99.0,48.0,18,29.72,10.0,SE,6.9,-,N/A,,Clear,130,2013-07-23 21:53:00
4:53 PM,99.0,46.0,16,29.70,10.0,SSE,4.6,19.6,N/A,,Clear,150,2013-07-23 22:53:00
5:53 PM,98.1,48.9,19,29.71,10.0,South,13.8,-,N/A,,Clear,180,2013-07-23 23:53:00
6:53 PM,96.1,52.0,22,29.71,10.0,South,12.7,-,N/A,,Clear,170,2013-07-24 00:53:00
7:53 PM,91.0,55.0,29,29.73,10.0,SSE,10.4,-,N/A,,Clear,150,2013-07-24 01:53:00
8:53 PM,87.1,57.0,36,29.77,10.0,SE,9.2,-,N/A,,Clear,140,2013-07-24 02:53:00
9:53 PM,82.9,57.9,42,29.79,10.0,South,5.8,-,N/A,,Clear,180,2013-07-24 03:53:00
10:53 PM,80.1,59.0,48,29.81,10.0,WSW,6.9,-,N/A,,Clear,240,2013-07-24 04:53:00
11:53 PM,82.0,57.9,44,29.81,10.0,NNW,4.6,-,N/A,,Clear,340,2013-07-24 05:53:00